Greenville, AL

2:04 PM CST on January 17, 2018 (GMT -0600)
Greenville Municipal

Weather History for KPRN - November, 2012

Change the Weather History Date:

Friday, November 9, 2012

  Actual Average Record
Temperature  
Mean Temperature 52 °F -  
Max Temperature 70 °F 72 °F 84 °F (1986)
Min Temperature 34 °F 47 °F 29 °F (1941)
Degree Days  
Heating Degree Days 13    
Growing Degree Days 2 (Base 50)    
Moisture  
Dew Point 39 °F    
Average Humidity 70    
Maximum Humidity 90    
Minimum Humidity 31    
Precipitation  
Precipitation 0.01 in - - ()
Sea Level Pressure  
Sea Level Pressure 30.24 in    
Wind  
Wind Speed 1 mph (ENE)    
Max Wind Speed 5 mph    
Max Gust Speed -    
Visibility 9 miles    
Events      
Averages and records for this station are not official NWS values.
T = Trace of Precipitation, MM = Missing Value Source: NWS Daily Summary

Daily Weather History Graph

Daily Weather History Graph

Search for Another Location

Airport or City:

Trip Planner

Search our weather history database for the weather conditions in past years. The results will help you decide how hot, cold, wet, or windy it might be!

Date:

Astronomy

Nov. 09, 2012 Rise Set
Actual Time 6:10 AM CST 4:50 PM CST
Civil Twilight 5:44 AM CST 5:15 PM CST
Nautical Twilight 5:15 AM CST 5:45 PM CST
Astronomical Twilight 4:46 AM CST 6:13 PM CST
Moon 1:24 AM CST (11/9) 1:48 PM CST (11/9)
Length of Visible Light 11h 31m
Length of Day
10h 40m
Waning Crescent, 23% of the Moon is Illuminated
Nov 9
Waning Crescent
Nov 13
New
Nov 20
First Quarter
Nov 28
Full
Dec 6
Last Quarter

Hourly Weather History & Observations

Time (CST) Temp. Windchill Dew Point Humidity Pressure Visibility Wind Dir Wind Speed Gust Speed Precip Events Conditions
12:56 AM 37.0 °F 34.5 °F 34.0 °F 89% 30.21 in 10.0 mi NNW 3.5 mph - N/A   Clear
1:56 AM 36.0 °F - 33.1 °F 89% 30.20 in 10.0 mi Calm Calm - N/A   Clear
2:56 AM 35.1 °F - 32.0 °F 89% 30.21 in 10.0 mi Calm Calm - N/A   Clear
3:56 AM 35.1 °F - 32.0 °F 89% 30.22 in 10.0 mi Calm Calm - N/A   Clear
4:56 AM 34.0 °F - 30.9 °F 89% 30.24 in 10.0 mi Calm Calm - N/A   Clear
5:56 AM 34.0 °F - 30.9 °F 89% 30.26 in 10.0 mi Calm Calm - N/A   Clear
6:56 AM 36.0 °F - 33.1 °F 89% 30.28 in 7.0 mi Calm Calm - N/A   Clear
7:56 AM 48.0 °F - 43.0 °F 83% 30.30 in 7.0 mi Calm Calm - 0.01 in   Clear
8:56 AM 57.0 °F - 43.0 °F 59% 30.31 in 10.0 mi Calm Calm - N/A   Clear
9:56 AM 61.0 °F - 41.0 °F 48% 30.31 in 10.0 mi SE 4.6 mph - N/A   Clear
10:56 AM 64.9 °F - 39.9 °F 40% 30.29 in 10.0 mi Calm Calm - N/A   Clear
11:56 AM 66.9 °F - 37.0 °F 33% 30.26 in 10.0 mi Calm Calm - N/A   Clear
12:56 PM 69.1 °F - 37.0 °F 31% 30.22 in 10.0 mi Calm Calm - N/A   Clear
1:56 PM 70.0 °F - 37.9 °F 31% 30.21 in 10.0 mi Calm Calm - N/A   Clear
2:56 PM 68.0 °F - 36.0 °F 31% 30.20 in 10.0 mi Calm Calm - N/A   Clear
3:56 PM 68.0 °F - 39.0 °F 35% 30.21 in 10.0 mi Calm Calm - N/A   Clear
4:56 PM 60.1 °F - 45.0 °F 57% 30.21 in 10.0 mi Calm Calm - N/A   Clear
5:56 PM 54.0 °F - 46.0 °F 75% 30.22 in 10.0 mi Calm Calm - N/A   Clear
6:56 PM 51.1 °F - 45.0 °F 80% 30.24 in 10.0 mi Calm Calm - N/A   Clear
7:56 PM 46.9 °F - 44.1 °F 90% 30.24 in 10.0 mi Calm Calm - N/A   Clear
8:56 PM 46.9 °F - 43.0 °F 86% 30.25 in 10.0 mi Calm Calm - N/A   Clear
9:56 PM 45.0 °F - 42.1 °F 90% 30.25 in 7.0 mi Calm Calm - N/A   Clear
10:56 PM 43.0 °F - 39.9 °F 89% 30.25 in 8.0 mi Calm Calm - N/A   Clear
11:56 PM 43.0 °F - 39.9 °F 89% 30.25 in 5.0 mi Calm Calm - N/A   Clear